Regional Weather Roundup
Issued by NWS

Home | Current Version | Previous Version | Graphics & Text | Print | Product List | Glossary On
Versions: 1 2 3 4 5 6 7 8 9 10 11 12 13 14 15 16 17 18 19 20 21 22 23 24 25 26 27 28 29 30 31 32 33 34 35 36 37 38 39 40 41 42 43 44 45 46 47 48 49 50
000
ASUS45 KPSR 011300
RWRAZ

PRELIMINARY ARIZONA REGIONAL HOURLY WEATHER ROUNDUP
NATIONAL WEATHER SERVICE PHOENIX AZ
600 AM MST SUN MAR 01 2015

NOTE: FAIR INDICATES FEW OR NO CLOUDS BELOW 12,000 FEET WITH NO
SIGNIFICANT WEATHER AND/OR OBSTRUCTIONS TO VISIBILITY.

AZZ001>003-036-011400-
NORTHWEST ARIZONA

CITY           SKY/WX    TMP DP  RH WIND       PRES   REMARKS
KINGMAN        CLOUDY    48  34  58 SW6       29.92R
$$

AZZ004>008-015-016-018-011400-
NORTH CENTRAL ARIZONA

CITY           SKY/WX    TMP DP  RH WIND       PRES   REMARKS
GRAND CANYON   LGT SNOW  33  31  92 S12G24    29.99R FOG     WCI  24
PRESCOTT       LGT RAIN  38  35  89 N12       29.97R FOG     WCI  30
FLAGSTAFF      NOT AVBL
PAYSON         CLOUDY    45  43  93 VRB7      30.02R
PAGE           CLOUDY    39  34  82 E3        30.00R
$$

AZZ009>014-017-011400-
NORTHEAST ARIZONA

CITY           SKY/WX    TMP DP  RH WIND       PRES   REMARKS
WINSLOW        NOT AVBL
SAINT JOHNS    CLOUDY    43  39  86 E6        30.00R
WINDOW ROCK    LGT RAIN  36  33  89 CALM      30.02R FOG
SHOW LOW       LGT RAIN  39  37  93 SW17G26   30.02R WCI  30
$$

AZZ023-011400-
GREATER PHOENIX AREA

CITY           SKY/WX    TMP DP  RH WIND       PRES   REMARKS
PHOENIX        CLOUDY    61  47  59 E6        29.92R
BUCKEYE        CLOUDY    59  50  72 E6        29.93S
DEER VALLEY    CLOUDY    59  47  64 SE8       29.93R
SCOTTSDALE     CLOUDY    59  47  64 CALM      29.95R
MESA-FALCON    MOCLDY    59  46  63 E8        29.94
MESA-GATEWAY   MOCLDY    57  48  72 SE6       29.96S
CHANDLER       MOCLDY    59  48  67 CALM      29.94
$$

AZZ027-028-011400-
SOUTHWEST MARICOPA COUNTY AND PINAL COUNTY

CITY           SKY/WX    TMP DP  RH WIND       PRES   REMARKS
CASA GRANDE    CLOUDY    57  45  62 CALM      29.96R
$$

AZZ503-504-507>509-011400-
SOUTHEAST ARIZONA

CITY           SKY/WX    TMP DP  RH WIND       PRES   REMARKS
TUCSON         PTCLDY    55  43  63 E5        30.00R
DAVIS-MONTHAN  PTCLDY    54  41  62 SE8       29.98R
RYAN FIELD       N/A     50  45  81 N5        29.99
NOGALES        CLEAR     53  26  35 SE10      30.01R
SIERRA VISTA   CLEAR     46  37  71 S10       30.04R
SAFFORD        PTCLDY    51  42  71 CALM      29.99R
$$

AZZ020-021-025-026-031-011400-
SOUTHWEST ARIZONA

CITY           SKY/WX    TMP DP  RH WIND       PRES   REMARKS
YUMA           LGT RAIN  58  46  64 NE6       29.91R
$$

CAZ031-033-041-043-047-048-061-011400-
SOUTHERN CALIFORNIA

CITY           SKY/WX    TMP DP  RH WIND       PRES   REMARKS
DOWNTOWN L.A.  CLOUDY    53  47  79 CALM      29.91S
L.A. AIRPORT   MOCLDY    52  47  83 E9        29.91F
SAN DIEGO      LGT RAIN  56  51  84 SE9       29.92R
BURBANK        PTCLDY    48  44  86 N5        29.90S
ONTARIO        PTCLDY    49  46  90 E6        29.91S
RIVERSIDE      CLOUDY    50  47  89 CALM      29.92S
PALM SPRINGS   CLOUDY    56  42  59 CALM      29.91R
EL CENTRO NAS  CLOUDY    59  42  53 NW8       29.89S
IMPERIAL       CLOUDY    60  43  53 CALM      29.89R
BLYTHE         CLOUDY    57  43  59 SE7       29.90S
$$

NVZ020-UTZ003-011400-
SOUTHERN NEVADA-UTAH

CITY           SKY/WX    TMP DP  RH WIND       PRES   REMARKS
LAS VEGAS      NOT AVBL
SALT LAKE CITY MOCLDY    33  30  88 CALM      30.03R
$$

NMZ009-TXZ055-011400-
NEW MEXICO-WEST TEXAS

CITY           SKY/WX    TMP DP  RH WIND       PRES   REMARKS
ALBUQUERQUE    MOCLDY    34  32  92 SE5       30.07R WCI  30
EL PASO        CLEAR     45  30  55 S8        30.07R
$$


........................KEY........................
SKY/WX - SKY CONDITION/WEATHER
TMP    - TEMPERATURE IN FAHRENHEIT
DP     - DEW POINT IN FAHRENHEIT
RH     - RELATIVE HUMIDITY IN PERCENT
WIND   - DIRECTION AND SPEED IN MILES PER HOUR (MPH)
VRB    - VARIABLE WIND DIRECTION
PRES   - MEAN SEA LEVEL PRESSURE IN INCHES OF MERCURY
         F - FALLING PRESSURE   R - RISING PRESSURE
         S - STEADY PRESSURE
VSB    - VISIBILITY IN MILES
HX     - HEAT INDEX IN FAHRENHEIT
WCI    - WIND CHILL INDEX IN FAHRENHEIT
TC     - TEMPERATURE IN CELSIUS WHICH IS ALSO KNOWN AS
         TEMPERATURE IN CENTIGRADE
AFB    - AIR FORCE BASE
         LUKE AFB IS LUKE AIR FORCE BASE
         DAVIS-MONTHAN IS DAVIS-MONTHAN AIR FORCE BASE
NAS    - NAVAL AIR STATION
         EL CENTRO NAS IS EL CENTRO NAVAL AIR STATION
N/A    - NOT AVAILABLE



USA.gov is the U.S. government's official web portal to all federal, state and local government web resources and services.